Regional Weather Roundup
Issued by NWS

Home | Current Version | Previous Version | Text Only | Print | Product List | Glossary Off
Versions: 1 2 3 4 5 6 7 8 9 10 11 12 13 14 15 16 17 18 19 20 21 22 23 24 25 26 27 28 29 30 31 32 33 34 35 36 37 38 39 40 41 42 43 44 45 46 47 48 49 50

000
ASUS45 KTFX 280910
RWRMT
MONTANA REGIONAL WEATHER ROUNDUP
NATIONAL WEATHER SERVICE GREAT FALLS MT
300 AM MDT SUN MAY 28 2017

NOTE: "FAIR" INDICATES FEW OR NO CLOUDS BELOW 12000 FEET WITH NO
SIGNIFICANT WEATHER AND/OR OBSTRUCTIONS TO VISIBILITY.

MTZ001>007-043-281000-
WEST OF THE DIVIDE

CITY           SKY/WX    TMP DP  RH WIND       PRES   REMARKS
KALISPELL      CLEAR     46  43  89 N3        30.16R
MISSOULA       CLEAR     48  41  76 CALM      30.22S
BUTTE          CLEAR     39  33  79 S5        30.30R
MULLAN PASS    CLEAR     53  36  52 NW5       30.29S
ANACONDA         N/A     46  34  61 SW9       30.27R
DEER LODGE       N/A     43  36  75 CALM      30.28S
EUREKA           N/A     48  39  71 CALM      30.15R
HAMILTON         N/A     52  36  54 S8        30.23S
RONAN            N/A     48  40  74 CALM      30.20S
$$

MTZ008-052>055-281000-
SOUTHWEST MONTANA

CITY           SKY/WX    TMP DP  RH WIND       PRES   REMARKS
BOZEMAN        CLEAR     39  36  89 SE7       30.24S
DILLON         CLEAR     45  33  63 S12       30.27R
ENNIS          CLEAR     37  32  81 CALM      30.33R
THREE FORKS      N/A     42  38  86 CALM      30.20S
$$

MTZ009-010-012-014-046-048-049-054-281000-
EAST SLOPES AND CENTRAL MONTANA

CITY           SKY/WX    TMP DP  RH WIND       PRES   REMARKS
CUT BANK       PTCLDY    49  41  74 W10       30.18R
GREAT FALLS    CLOUDY    44  39  82 W3        30.17S
MALMSTROM AFB  MOCLDY    53  43  69 SE8       30.16R
HELENA         CLEAR     54  39  57 CALM      30.19S
CHOTEAU          N/A     52  41  66 W6        30.21S
$$

MTZ011-013-016-021-045-047-050-051-281000-
NORTH CENTRAL MONTANA

CITY           SKY/WX    TMP DP  RH WIND       PRES   REMARKS
HAVRE          CLOUDY    49  43  80 W8        30.09S
LEWISTOWN      CLEAR     47  40  76 E6        30.16S
N BAR RANCH      N/A     50  41  71 NW13      30.19R
CHINOOK          N/A     48  46  93 NW3       30.09S
FORT BENTON      N/A     63  43  48 CALM        N/A
$$

MTZ017>020-022>027-061-062-281000-
NORTHEAST MONTANA

CITY           SKY/WX    TMP DP  RH WIND       PRES   REMARKS
GLASGOW        CLOUDY    53  40  61 W7        30.05R
JORDAN           N/A     51  42  71 W7        30.07R
SIDNEY         CLEAR     50  35  56 NW12      29.99R
WOLF POINT     CLOUDY    51  36  56 W6        30.03R
MALTA          CLEAR     46  45  93 CALM      30.06F
PLENTYWOOD       N/A     46  34  61 W6        29.98R
POPLAR           N/A     46  34  61 W5        30.02R
$$

MTZ028>42-056>058-281000-
SOUTHCENTRAL AND SOUTHEAST MONTANA

CITY           SKY/WX    TMP DP  RH WIND       PRES   REMARKS
BAKER          CLOUDY    48  38  68 NW7       30.03R
BILLINGS       CLOUDY    58  40  51 SW7       30.17S
LIVINGSTON     CLOUDY    42  37  82 W3        30.22F
MILES CITY     CLOUDY    59  39  47 NW12      30.05R
BIG TIMBER     MOCLDY    50  36  57 SW9       30.25S
FORSYTH          N/A     59  41  51 W10       30.07S
LAUREL           N/A     54  37  52 CALM      30.16F
ROUNDUP          N/A     55  42  61 S8        30.05S
$$

REGIONAL REPORTS...DAKOTAS

CITY           SKY/WX    TMP DP  RH WIND       PRES   REMARKS
WILLISTON      CLEAR     50  34  54 NW12      29.96R
MINOT          MOCLDY    54  45  71 W12       29.86R
DICKINSON      CLEAR     41  36  82 W6        29.94R
BEACH            N/A     48  37  66 NW10      30.03R
CROSBY           N/A     46  37  71 NW10      29.94R
TIOGA            N/A     43  43 100 W10       29.95R
WATFORD CITY     N/A     50  36  57 W12       29.95R
BISMARCK       CLEAR     46  42  86 W7        29.87F
GRAND FORKS    CLOUDY    54  49  83 W8        29.73F
FARGO          LGT RAIN  52  49  89 NW9       29.76S
BUFFALO SD       N/A     49  42  77 NW14      29.94R
RAPID CITY     PTCLDY    57  39  51 W13       30.01F
$$

REGIONAL REPORTS...WYOMING/IDAHO/WASHINGTON

CITY           SKY/WX    TMP DP  RH WIND       PRES   REMARKS
GILLETTE       CLEAR     48  40  73 W14       30.12F
SHERIDAN       PTCLDY    53  38  56 NW8       30.15R
BUFFALO WY     CLEAR     53  34  48 NW13      30.18S
CODY           CLOUDY    53  33  46 SW7       30.24S
YELLOWSTONE LA   N/A     28  28 100 CALM      30.41R
IDAHO FALLS    CLEAR     43  41  93 N3        30.28S
SALMON         CLEAR     45  37  76 CALM      30.25R
BOISE          CLEAR     58  41  53 SE8       30.16S
SPOKANE        CLEAR     61  45  55 CALM      30.14S
$$

REGIONAL REPORTS...ALBERTA

CITY           SKY/WX    TMP DP  RH WIND       PRES   REMARKS
EDMONTON       CLEAR     48  34  57 N6        30.20R
CALGARY        MOCLDY    54  41  62 N5        30.21R
LETHBRIDGE     PTCLDY    52  45  76 W9        30.16R
MEDICINE HAT   PTCLDY    50  45  81 SW3       30.09R
WATERTON GATE    N/A     48  37  66 S10         N/A
CARDSTON         N/A     50  41  71 S2          N/A
$$

REGIONAL REPORTS...SASKATCHEWAN

CITY           SKY/WX    TMP DP  RH WIND       PRES   REMARKS
SWIFT CURRENT  MOCLDY    50  39  66 SW12      30.02R
REGINA         MOCLDY    48  37  66 W2        29.94F
SASKATOON      PTCLDY    46  39  76 NW9       29.99R
CYPRESS HILLS    N/A     50  37  62 NW5         N/A
VAL MARIE        N/A     46  39  76 W2          N/A
ROCKGLEN         N/A     45  32  61 W10         N/A
ASSINIBOIA       N/A     48  37  66 NW6         N/A
$$



USA.gov is the U.S. government's official web portal to all federal, state and local government web resources and services.